Home   Weather   Swindon   Past weeks

Flag for United Kingdom Past Weather in Swindon, England, United Kingdom — Yesterday and Last 2 Weeks

54 °F

Partly sunny.

Feels Like: 52 °F
Forecast: 51 / 61 °F
Wind: 7 mph from Southwest

Location: Brize Norton

Current Time: Oct 27, 2016 at 12:19:47 PM

Latest Report: Oct 27, 2016 at 11:50 AM

Visibility: N/A

Pressure: 30.48 "Hg

Humidity: 88%

Dew Point: 50 °F

Location of SwindonLocation

Past Weather in Swindon — Graph


Swindon Temperature Yesterday

Maximum temperature yesterday: 59 °F (at 3:50 PM)
Minimum temperature yesterday: 48 °F (at 1:50 AM)
Average temperature yesterday: 52 °F

High & Low Weather Summary for the Past Weeks

High61 °F (Oct 15, 1:50 PM)100% (Oct 16, 1:50 AM)30.48 "Hg (Oct 16, 1:50 AM)
Low41 °F (Oct 22, 2:50 AM)47% (Oct 18, 3:50 PM)29.62 "Hg (Oct 15, 4:50 AM)
Average50 °F84%30.02 "Hg
* Reported Oct 12 10:50 AM — Oct 27 10:50 AM, Swindon, Weather by CustomWeather, © 2016

Note: Actual official high and low records may vary slightly from our data, if they occured in-between our weather recording intervals... More about our weather records


Swindon Weather History for the Previous 24 Hours

Scroll right to see more
Time TempWeatherWind HumidityBarometerVisibility
10:50 AM
Thu, Oct 27
50 °FScattered clouds.6 mph94%30.48 "HgN/A
9:50 AM48 °FFog.6 mph100%30.48 "Hg2 mi
8:50 AM48 °FFog.5 mph100%30.45 "Hg1 mi
7:50 AM46 °FFog.2 mph100%30.45 "Hg0 mi
6:50 AM48 °FFog.2 mph100%30.45 "Hg0 mi
5:50 AM46 °FFog.3 mph100%30.45 "Hg0 mi
4:50 AM46 °FFog.5 mph100%30.45 "Hg1 mi
3:50 AM48 °FPassing clouds.5 mph100%30.45 "Hg1 mi
2:50 AM48 °FFog.5 mph100%30.45 "Hg0 mi
1:50 AM48 °FFog.5 mph100%30.45 "Hg0 mi
12:50 AM48 °FFog.3 mph100%30.42 "Hg0 mi
11:50 PM
Wed, Oct 26
50 °FFog.7 mph100%30.42 "Hg0 mi
10:50 PM50 °FFog.5 mph94%30.42 "Hg0 mi
9:50 PM50 °FFog.2 mph94%30.42 "Hg1 mi
8:50 PM50 °FFog.3 mph100%30.42 "Hg3 mi
7:50 PM52 °FPassing clouds.1 mph94%30.39 "HgN/A
6:50 PM54 °FPassing clouds.3 mph94%30.39 "HgN/A
5:50 PM55 °FPassing clouds.3 mph88%30.36 "HgN/A
4:50 PM57 °FPassing clouds.6 mph82%30.33 "HgN/A
3:50 PM59 °FScattered clouds.8 mph77%30.36 "HgN/A
2:50 PM57 °FScattered clouds.7 mph82%30.33 "HgN/A
1:50 PM55 °FPartly sunny.7 mph88%30.36 "HgN/A
12:50 PM54 °FBroken clouds.6 mph88%30.36 "Hg4 mi
Weather by CustomWeather, © 2016

See weather overviewHow to use our weather pages